Location: Bemmer
(51.5498°N, 5.6249°E)
Time: 16:46:16
(UTC+00:00)

Resurs 01 Rocket - Pass Details

Date: 03 March 2021
Orbit: 635 x 643 km, 98.0° (Epoch: 13 April)

Event Time Altitude Azimuth Distance (km) Brightness Sun altitude
Exits shadow 19:12:41 31° 68° (ENE) 1,124 2.4 -18.0°
Maximum altitude 19:12:50 31° 64° (ENE) 1,122 2.4 -18.0°
Drops below altitude 10° 19:16:43 10° 3° (N) 2,037 4.3 -18.6°
Sets 19:19:07 0° 353° (N) 2,952 5.3 -18.9°
